FW8483 Weather Reports


time (UTC)temp
F
wind
direction
speed
knots
gust
knots
rain 1hr
in
rain 24hr
in
rain mn
in
humidity
%
barometer
mb
20260901184006 90 94 5.2 8.7 0.00 0.00 0.00 63 1017.1
20260901183506 91 86 4.3 8.7 0.00 0.00 0.00 62 1017.2
20260901183013 91 74 2.6 9.6 0.00 0.00 0.00 61 1017.3
20260901182507 90 38 6.1 9.6 0.00 0.00 0.00 60 1017.4
20260901182008 90 51 7.0 9.6 0.00 0.00 0.00 62 1017.4
20260901181522 90 317 3.5 9.6 0.00 0.00 0.00 64 1017.5
20260901181012 90 68 4.3 9.6 0.00 0.00 0.00 67 1017.5
20260901180511 90 18 4.3 13.9 0.00 0.00 0.00 63 1017.6
20260901180032 90 17 4.3 13.9 0.00 0.00 0.00 64 1017.7
20260901175513 90 51 4.3 7.0 0.00 0.00 0.00 65 1017.7
20260901175015 90 41 2.6 8.7 0.00 0.00 0.00 64 1017.8
20260901174535 90 82 3.5 10.4 0.00 0.00 0.00 66 1017.9
20260901174007 90 328 6.1 10.4 0.00 0.00 0.00 67 1017.9
20260901173504 90 74 6.1 9.6 0.00 0.00 0.00 65 1018.0
20260901173011 89 98 4.3 8.7 0.00 0.00 0.00 63 1018.1
20260901172504 89 91 3.5 8.7 0.00 0.00 0.00 66 1018.3
20260901172008 89 67 5.2 13.0 0.00 0.00 0.00 63 1018.3
20260901171517 90 48 3.5 13.0 0.00 0.00 0.00 62 1018.2
20260901171009 89 94 8.7 13.0 0.00 0.00 0.00 65 1018.3
20260901170511 89 101 7.0 9.6 0.00 0.00 0.00 64 1018.4
20260901170036 89 61 5.2 9.6 0.00 0.00 0.00 65 1018.4
20260901165512 89 74 3.5 9.6 0.00 0.00 0.00 67 1018.4
20260901165015 89 83 3.5 8.7 0.00 0.00 0.00 66 1018.5
20260901164533 89 13 4.3 8.7 0.00 0.00 0.00 66 1018.4
20260901164015 89 58 4.3 8.7 0.00 0.00 0.00 66 1018.4
20260901163503 89 89 4.3 8.7 0.00 0.00 0.00 67 1018.4
20260901163017 88 39 5.2 8.7 0.00 0.00 0.00 70 1018.5
20260901162504 88 51 3.5 9.6 0.00 0.00 0.00 72 1018.5
20260901162004 88 74 6.1 9.6 0.00 0.00 0.00 71 1018.4
20260901161515 88 14 2.6 8.7 0.00 0.00 0.00 71 1018.5
20260901161010 88 71 6.1 8.7 0.00 0.00 0.00 72 1018.4
20260901160508 88 30 3.5 7.8 0.00 0.00 0.00 73 1018.4
20260901160032 87 56 1.7 7.0 0.00 0.00 0.00 73 1018.4
20260901155510 87 338 2.6 7.0 0.00 0.00 0.00 75 1018.5
20260901155011 87 38 3.5 7.0 0.00 0.00 0.00 73 1018.6
20260901154527 87 352 2.6 7.8 0.00 0.00 0.00 72 1018.7
20260901154017 87 51 6.1 7.8 0.00 0.00 0.00 72 1018.7
20260901153514 87 82 3.5 7.8 0.00 0.00 0.00 74 1018.7
20260901153032 87 61 3.5 7.8 0.00 0.00 0.00 74 1018.7
20260901152502 87 9 3.5 7.8 0.00 0.00 0.00 75 1018.7
20260901152003 86 86 3.5 7.8 0.00 0.00 0.00 77 1018.7
20260901151514 86 74 3.5 7.8 0.00 0.00 0.00 77 1018.7
20260901151007 85 56 4.3 7.8 0.00 0.00 0.00 76 1018.7
20260901150509 85 33 2.6 7.0 0.00 0.00 0.00 78 1018.7
20260901150021 86 48 3.5 6.1 0.00 0.00 0.00 78 1018.7
20260901145511 86 80 3.5 6.1 0.00 0.00 0.00 76 1018.7
20260901145012 85 48 1.7 4.3 0.00 0.00 0.00 78 1018.7
20260901144527 85 61 0.9 7.0 0.00 0.00 0.00 80 1018.8
20260901144015 85 5 3.5 7.0 0.00 0.00 0.00 78 1018.7
20260901143514 84 67 1.7 7.0 0.00 0.00 0.00 81 1018.6
20260901143030 84 32 3.5 7.0 0.00 0.00 0.00 81 1018.6
20260901142518 84 61 2.6 6.1 0.00 0.00 0.00 84 1018.7
20260901142017 83 26 2.6 6.1 0.00 0.00 0.00 82 1018.7
20260901141513 83 72 4.3 6.1 0.00 0.00 0.00 82 1018.6
20260901141003 83 69 2.6 5.2 0.00 0.00 0.00 82 1018.5
20260901140509 83 52 2.6 4.3 0.00 0.00 0.00 83 1018.5
20260901140022 83 69 0.0 6.1 0.00 0.00 0.00 85 1018.5
20260901135512 82 59 1.7 6.1 0.00 0.00 0.00 84 1018.5
20260901135009 82 72 2.6 5.2 0.00 0.00 0.00 85 1018.5
20260901134523 82 74 2.6 5.2 0.00 0.00 0.00 86 1018.5
20260901134013 81 113 1.7 7.0 0.00 0.00 0.00 86 1018.4
20260901133503 81 51 2.6 7.0 0.00 0.00 0.00 87 1018.3
20260901133004 81 74 4.3 7.0 0.00 0.00 0.00 86 1018.3
20260901132505 80 92 2.6 6.1 0.00 0.00 0.00 87 1018.2
20260901132005 80 42 2.6 4.3 0.00 0.00 0.00 87 1018.2
20260901131514 80 24 1.7 3.5 0.00 0.00 0.00 90 1018.2
20260901131003 79 68 1.7 3.5 0.00 0.00 0.00 89 1018.2
20260901130507 79 86 2.6 4.3 0.00 0.00 0.00 89 1018.2
20260901130016 79 53 2.6 4.3 0.00 0.00 0.00 90 1018.2
20260901125509 79 72 0.9 4.3 0.00 0.00 0.00 91 1018.3
20260901125011 78 34 0.9 4.3 0.00 0.00 0.00 91 1018.2
20260901124522 78 35 1.7 3.5 0.00 0.00 0.00 92 1018.2
20260901124012 78 67 2.6 3.5 0.00 0.00 0.00 92 1018.3
20260901123512 77 53 0.0 3.5 0.00 0.00 0.00 94 1018.2
20260901123037 77 74 1.7 3.5 0.00 0.00 0.00 94 1018.2
20260901122504 77 54 1.7 3.5 0.00 0.00 0.00 94 1018.3
20260901122003 76 75 1.7 3.5 0.00 0.00 0.00 95 1018.2
20260901121508 76 66 1.7 3.5 0.00 0.00 0.00 96 1018.3
20260901121004 76 57 0.0 2.6 0.00 0.00 0.00 96 1018.3
20260901120504 75 65 0.9 2.6 0.00 0.00 0.00 96 1018.1
20260901120015 75 13 0.0 1.7 0.00 0.00 0.00 97 1018.0
20260901115510 75 70 0.0 0.0 0.00 0.00 0.00 97 1018.0
20260901115008 75 78 0.0 0.0 0.00 0.00 0.00 97 1017.9
20260901114520 75 66 0.0 0.0 0.00 0.00 0.00 97 1017.8
20260901114009 75 57 0.0 0.0 0.00 0.00 0.00 97 1017.7
20260901113513 74 37 0.0 1.7 0.00 0.00 0.00 97 1017.7
20260901113027 74 42 0.0 1.7 0.00 0.00 0.00 97 1017.9
20260901112512 74 52 0.0 0.9 0.00 0.00 0.00 97 1017.9
20260901112018 74 52 0.0 0.9 0.00 0.00 0.00 97 1017.9
20260901111508 74 41 0.0 0.0 0.00 0.00 0.00 97 1017.9
20260901111004 74 43 0.0 0.0 0.00 0.00 0.00 97 1017.8
20260901110504 75 43 0.0 0.0 0.00 0.00 0.00 97 1017.7
20260901110019 75 43 0.0 0.0 0.00 0.00 0.00 97 1017.6
20260901105506 75 43 0.0 0.0 0.00 0.00 0.00 97 1017.5
20260901105009 75 44 0.0 0.0 0.00 0.00 0.00 97 1017.4
20260901104527 75 12 0.0 0.0 0.00 0.00 0.00 97 1017.3
20260901104009 74 9 0.0 0.0 0.00 0.00 0.00 97 1017.2
20260901103509 74 15 0.0 0.0 0.00 0.00 0.00 97 1017.1
20260901103025 74 15 0.0 0.0 0.00 0.00 0.00 97 1017.1
20260901102514 74 15 0.0 0.0 0.00 0.00 0.00 97 1017.0
20260901102015 74 15 0.0 0.0 0.00 0.00 0.00 97 1017.0
20260901101530 74 15 0.0 0.0 0.00 0.00 0.00 97 1017.0
20260901101002 74 15 0.0 0.0 0.00 0.00 0.00 97 1017.0
20260901100504 74 15 0.0 0.0 0.00 0.00 0.00 97 1017.0
20260901100013 74 15 0.0 0.0 0.00 0.00 0.00 97 1016.9
20260901095507 74 15 0.0 0.0 0.00 0.00 0.00 97 1016.8
20260901095008 74 15 0.0 0.0 0.00 0.00 0.00 97 1016.7
20260901094519 75 15 0.0 0.0 0.00 0.00 0.00 97 1016.6
20260901094009 75 15 0.0 0.0 0.00 0.00 0.00 97 1016.7
20260901093509 75 15 0.0 0.0 0.00 0.00 0.00 97 1016.6
20260901093026 75 15 0.0 0.0 0.00 0.00 0.00 97 1016.5
20260901092515 75 15 0.0 0.0 0.00 0.00 0.00 97 1016.5
20260901092017 75 15 0.0 0.0 0.00 0.00 0.00 97 1016.6
20260901091532 75 15 0.0 0.0 0.00 0.00 0.00 97 1016.6
20260901091015 75 15 0.0 0.0 0.00 0.00 0.00 97 1016.6
20260901090514 75 15 0.0 0.0 0.00 0.00 0.00 97 1016.5
20260901090025 75 15 0.0 0.0 0.00 0.00 0.00 97 1016.6
20260901085503 75 15 0.0 0.0 0.00 0.00 0.00 97 1016.6
20260901085007 75 15 0.0 0.0 0.00 0.00 0.00 97 1016.6
20260901084516 75 15 0.0 0.0 0.00 0.00 0.00 97 1016.6
20260901084007 75 15 0.0 0.0 0.00 0.00 0.00 97 1016.7
20260901083512 75 15 0.0 0.0 0.00 0.00 0.00 97 1016.6
20260901083033 75 15 0.0 0.0 0.00 0.00 0.00 97 1016.6
20260901082510 75 15 0.0 0.0 0.00 0.00 0.00 96 1016.6
20260901082014 75 15 0.0 0.0 0.00 0.00 0.00 96 1016.7
20260901081527 75 15 0.0 0.0 0.00 0.00 0.00 97 1016.6
20260901081014 75 15 0.0 0.0 0.00 0.00 0.00 97 1016.6
20260901080515 75 15 0.0 0.0 0.00 0.00 0.00 97 1016.6
20260901080033 74 15 0.0 0.0 0.00 0.00 0.00 96 1016.6
20260901075516 75 15 0.0 0.0 0.00 0.00 0.00 96 1016.6
20260901075007 75 15 0.0 0.0 0.00 0.00 0.00 96 1016.7
20260901074522 75 15 0.0 0.0 0.00 0.00 0.00 96 1016.7
20260901074007 75 15 0.0 0.0 0.00 0.00 0.00 96 1016.7
20260901073507 75 15 0.0 0.0 0.00 0.00 0.00 96 1016.7
20260901073034 75 15 0.0 0.0 0.00 0.00 0.00 96 1016.7
20260901072512 75 15 0.0 0.0 0.00 0.00 0.00 96 1016.7
20260901072010 75 15 0.0 0.0 0.00 0.00 0.00 96 1016.8
20260901071528 75 15 0.0 0.0 0.00 0.00 0.00 97 1016.8
20260901071017 75 15 0.0 0.0 0.00 0.00 0.00 96 1016.8
20260901070512 75 64 0.0 0.0 0.00 0.00 0.00 96 1017.0
20260901070032 75 343 0.0 0.0 0.00 0.00 0.00 97 1017.0
20260901065514 75 343 0.0 0.0 0.00 0.00 0.00 97 1016.9
20260901065018 75 90 0.0 0.0 0.00 0.00 0.00 96 1017.0
20260901064538 75 90 0.0 0.0 0.00 0.00 0.00 96 1017.0
20260901064008 75 90 0.0 0.0 0.00 0.00 0.00 96 1017.0
20260901063505 75 90 0.0 0.0 0.00 0.00 0.00 96 1017.1
20260901063021 75 90 0.0 0.0 0.00 0.00 0.00 96 1017.1
20260901062507 75 90 0.0 0.0 0.00 0.00 0.00 96 1017.2
20260901062011 75 90 0.0 0.0 0.00 0.00 0.00 96 1017.2
20260901061614 75 90 0.0 0.0 0.00 0.00 0.00 96 1017.2
20260901061013 75 90 0.0 0.0 0.00 0.00 0.00 96 1017.4
20260901060515 75 90 0.0 0.0 0.00 0.00 0.00 96 1017.5
20260901060035 75 90 0.0 0.0 0.00 0.00 0.00 96 1017.5
20260901055514 76 90 0.0 0.0 0.00 0.00 0.00 96 1017.6
20260901055016 76 90 0.0 0.0 0.00 0.00 0.00 96 1017.6
20260901054534 76 90 0.0 0.0 0.00 0.00 0.00 96 1017.6
20260901054016 76 90 0.0 0.0 0.00 0.00 0.00 95 1017.6
20260901053518 76 90 0.0 0.0 0.00 0.00 0.00 96 1017.5
20260901053021 76 90 0.0 0.0 0.00 0.00 0.00 96 1017.5
20260901052509 76 90 0.0 0.0 0.00 0.00 0.00 96 1017.6
20260901052012 76 90 0.0 0.0 0.00 0.00 0.00 96 1017.6
20260901051523 76 91 0.0 0.0 0.00 0.00 0.00 95 1017.7
20260901051012 76 90 0.0 0.0 0.00 0.00 0.00 96 1017.8
20260901050514 76 91 0.0 0.0 0.00 0.00 0.00 96 1017.8
20260901050028 76 91 0.0 0.0 0.00 0.00 0.00 96 1017.8
20260901045515 76 90 0.0 0.0 0.00 0.00 0.00 95 1017.7
20260901045013 76 91 0.0 0.0 0.00 0.00 0.00 95 1017.8
20260901044535 76 91 0.0 0.0 0.00 0.00 0.00 95 1017.7
20260901044015 76 90 0.0 0.0 0.00 0.00 0.00 95 1017.7
20260901043517 76 90 0.0 0.0 0.00 0.00 0.00 95 1017.7
20260901043034 76 90 0.0 0.0 0.00 0.00 0.00 94 1017.8
20260901042518 77 90 0.0 0.0 0.00 0.00 0.00 94 1017.7
20260901042010 77 237 0.0 0.0 0.00 0.00 0.00 95 1017.8
20260901041526 77 237 0.0 0.0 0.00 0.00 0.00 95 1017.7
20260901041010 77 237 0.0 0.0 0.00 0.00 0.00 95 1017.8
20260901040513 77 237 0.0 0.0 0.00 0.00 0.00 94 1017.8
20260901040035 77 236 0.0 0.0 0.00 0.00 0.00 94 1017.8
20260901035518 77 237 0.0 0.0 0.00 0.00 0.00 95 1017.8
20260901035013 77 237 0.0 0.0 0.00 0.00 0.00 94 1017.8
20260901034535 77 237 0.0 0.0 0.00 0.00 0.00 94 1017.8
20260901034014 77 237 0.0 0.0 0.00 0.00 0.00 94 1017.8
20260901033518 77 236 0.0 0.0 0.00 0.00 0.00 94 1017.8
20260901033033 77 236 0.0 0.0 0.00 0.00 0.00 93 1017.8
20260901032514 77 237 0.0 0.0 0.00 0.00 0.00 93 1017.9
20260901032016 77 237 0.0 0.0 0.00 0.00 0.00 93 1017.9
20260901031536 78 237 0.0 0.0 0.00 0.00 0.00 93 1017.9
20260901031009 78 237 0.0 0.0 0.00 0.00 0.00 93 1017.9
20260901030511 78 237 0.0 0.0 0.00 0.00 0.00 93 1018.0
20260901030030 78 175 0.0 0.0 0.00 0.00 0.00 93 1018.0
20260901025514 78 175 0.0 0.0 0.00 0.00 0.00 93 1018.0
20260901025014 78 175 0.0 0.0 0.00 0.00 0.00 92 1018.0
20260901024529 78 175 0.0 0.0 0.00 0.00 0.00 92 1018.0
20260901024016 78 175 0.0 0.0 0.00 0.00 0.00 92 1018.1
20260901023517 78 175 0.0 0.0 0.00 0.00 0.00 92 1018.0
20260901023038 78 175 0.0 0.0 0.00 0.00 0.00 92 1017.9
20260901022514 78 244 0.0 0.0 0.00 0.00 0.00 92 1017.9
20260901022022 78 244 0.0 0.0 0.00 0.00 0.00 92 1017.9
20260901021535 78 244 0.0 0.0 0.00 0.00 0.00 92 1017.9
20260901021003 78 88 0.0 0.0 0.00 0.00 0.00 91 1017.8
20260901020502 79 168 0.0 0.0 0.00 0.00 0.00 90 1017.6
20260901020006 79 168 0.0 0.0 0.00 0.00 0.00 90 1017.6
20260901015502 79 200 0.0 0.0 0.00 0.00 0.00 90 1017.5
20260901015002 79 200 0.0 0.0 0.00 0.00 0.00 90 1017.3
20260901014503 79 114 0.0 0.0 0.00 0.00 0.00 90 1017.3
20260901014003 79 114 0.0 0.0 0.00 0.00 0.00 90 1017.3
20260901013503 79 114 0.0 0.0 0.00 0.00 0.00 89 1017.2
20260901013005 79 114 0.0 0.0 0.00 0.00 0.00 88 1017.1
20260901012502 80 114 0.0 0.0 0.00 0.00 0.00 88 1017.1
20260901012002 80 114 0.0 0.0 0.00 0.00 0.00 88 1017.0
20260901011505 80 114 0.0 0.0 0.00 0.00 0.00 87 1016.8
20260901011002 80 114 0.0 0.0 0.00 0.00 0.00 87 1016.8
20260901010502 80 114 0.0 0.0 0.00 0.00 0.00 86 1016.8
20260901010008 81 114 0.0 0.0 0.00 0.00 0.00 85 1016.8
20260901005504 81 114 0.0 0.0 0.00 0.00 0.00 83 1016.7
20260901005002 81 114 0.0 0.0 0.00 0.00 0.00 84 1016.6
20260901004506 82 114 0.0 0.0 0.00 0.00 0.00 82 1016.6
20260901004003 82 114 0.0 0.0 0.00 0.00 0.00 82 1016.6
20260901003503 82 114 0.0 0.0 0.00 0.00 0.00 81 1016.5
20260901003006 82 114 0.0 0.0 0.00 0.00 0.00 81 1016.4
20260901002503 82 114 0.0 0.0 0.00 0.00 0.00 80 1016.3
20260901002005 83 114 0.0 0.0 0.00 0.00 0.00 80 1016.2
20260901001513 83 114 0.0 0.0 0.00 0.00 0.00 78 1016.2
20260901001002 84 114 0.0 0.0 0.00 0.00 0.00 78 1016.2
20260901000502 84 114 0.0 0.0 0.00 0.00 0.00 78 1016.2
20260901000013 85 5 0.0 0.0 0.00 0.00 0.00 78 1016.3
20260831235503 85 40 0.0 0.0 0.00 0.00 0.00 76 1016.3
20260831235004 86 40 0.0 0.0 0.00 0.00 0.00 76 1016.2
20260831234505 86 40 0.0 0.0 0.00 0.00 0.00 74 1016.2
20260831234004 87 221 0.0 0.0 0.00 0.00 0.00 74 1016.2
20260831233502 87 221 0.0 0.0 0.00 0.00 0.00 73 1016.2
20260831233005 87 221 0.0 0.0 0.00 0.00 0.00 73 1016.2
20260831232505 88 222 0.0 0.0 0.00 0.00 0.00 73 1016.3
20260831232002 88 97 0.0 0.0 0.00 0.00 0.00 74 1016.3
20260831231507 88 97 0.0 0.0 0.00 0.00 0.00 72 1016.3
20260831231003 88 97 0.0 0.0 0.00 0.00 0.00 71 1016.3
20260831230503 88 97 0.0 1.7 0.00 0.00 0.00 70 1016.4
20260831230012 88 98 0.0 6.1 0.00 0.00 0.00 68 1016.3
20260831225502 89 90 1.7 6.1 0.00 0.00 0.00 67 1016.4
20260831225003 89 71 1.7 6.1 0.00 0.00 0.00 65 1016.4
20260831224507 89 82 4.3 6.1 0.00 0.00 0.00 65 1016.3
20260831224004 89 71 3.5 6.1 0.00 0.00 0.00 65 1016.3
20260831223504 89 64 3.5 6.1 0.00 0.00 0.00 64 1016.5
20260831223016 89 77 2.6 7.8 0.00 0.00 0.00 64 1016.5
20260831222507 89 84 3.5 7.8 0.00 0.00 0.00 63 1016.5
20260831222003 90 72 2.6 7.8 0.00 0.00 0.00 63 1016.5
20260831221521 90 78 2.6 7.8 0.00 0.00 0.00 65 1016.5
20260831221004 90 69 0.9 7.8 0.00 0.00 0.00 66 1016.6
20260831220503 90 59 2.6 7.8 0.00 0.00 0.00 64 1016.5
20260831220010 90 40 3.5 6.1 0.00 0.00 0.00 63 1016.5
20260831215506 90 26 1.7 7.0 0.00 0.00 0.00 65 1016.4
20260831215003 89 81 1.7 7.0 0.00 0.00 0.00 63 1016.4
20260831214506 89 27 1.7 7.8 0.00 0.00 0.00 63 1016.4
20260831214003 90 84 4.3 9.6 0.00 0.00 0.00 62 1016.4
20260831213505 90 83 6.1 9.6 0.00 0.00 0.00 63 1016.5
20260831213008 90 74 2.6 6.1 0.00 0.00 0.00 64 1016.4
20260831212504 90 40 0.9 3.5 0.00 0.00 0.00 62 1016.4
20260831212003 89 76 1.7 3.5 0.00 0.00 0.00 64 1016.5
20260831211507 89 23 0.9 2.6 0.00 0.00 0.00 64 1016.5
20260831211004 89 65 0.9 5.2 0.00 0.00 0.00 63 1016.6
20260831210505 90 42 0.9 11.3 0.00 0.00 0.00 60 1016.7
20260831210008 91 30 3.5 11.3 0.00 0.00 0.00 59 1016.6
20260831205504 91 85 7.0 11.3 0.00 0.00 0.00 63 1016.6
20260831205004 91 98 1.7 6.1 0.00 0.00 0.00 62 1016.6
20260831204509 91 127 3.5 7.8 0.00 0.00 0.00 60 1016.6
20260831204005 91 46 4.3 8.7 0.00 0.00 0.00 59 1016.7
20260831203504 90 80 6.1 8.7 0.00 0.00 0.00 61 1016.7
20260831203009 90 83 3.5 7.0 0.00 0.00 0.00 65 1016.7
20260831202504 90 89 3.5 8.7 0.00 0.00 0.00 63 1016.8
20260831202007 90 106 4.3 7.8 0.00 0.00 0.00 64 1016.8
20260831201512 90 62 3.5 9.6 0.00 0.00 0.00 64 1016.8
20260831201002 90 30 5.2 9.6 0.00 0.00 0.00 67 1016.8
20260831200502 89 56 0.0 5.2 0.00 0.00 0.00 65 1016.8
20260831200009 88 100 1.7 7.8 0.00 0.00 0.00 68 1016.9
20260831195506 89 90 3.5 7.8 0.00 0.00 0.00 66 1016.9
20260831195005 90 98 3.5 7.8 0.00 0.00 0.00 66 1017.0
20260831194522 90 74 2.6 6.1 0.00 0.00 0.00 65 1017.0
20260831194005 90 96 2.6 7.8 0.00 0.00 0.00 66 1017.1
20260831193505 90 89 3.5 7.8 0.00 0.00 0.00 64 1017.1
20260831193010 89 40 3.5 7.0 0.00 0.00 0.00 66 1017.1
20260831192502 89 51 3.5 7.8 0.00 0.00 0.00 67 1017.2
20260831192003 89 96 3.5 7.8 0.00 0.00 0.00 66 1017.3
20260831191512 89 101 3.5 7.0 0.00 0.00 0.00 67 1017.2
20260831191005 89 96 2.6 7.0 0.00 0.00 0.00 70 1017.2
20260831190505 89 84 4.3 8.7 0.00 0.00 0.00 67 1017.2
20260831190012 89 94 3.5 8.7 0.00 0.00 0.00 66 1017.3
20260831185505 90 80 3.5 8.7 0.00 0.00 0.00 65 1017.4
20260831185006 90 70 5.2 9.6 0.00 0.00 0.00 70 1017.4
20260831184514 90 88 4.3 9.6 0.00 0.00 0.00 66 1017.4